Regional Weather Roundup
Issued by NWS

Home | Current Version | Previous Version | Graphics & Text | Print | Product List | Glossary On
Versions: 1 2 3 4 5 6 7 8 9 10 11 12 13 14 15 16 17 18 19 20 21 22 23 24 25 26 27 28 29 30 31 32 33 34 35 36 37 38 39 40 41 42 43 44 45 46 47 48 49 50
070
ASUS43 KLSX 251510
RWRMO

WEATHER SUMMARY FOR MISSOURI
NATIONAL WEATHER SERVICE SPRINGFIELD MO
1000 AM CDT WED APR 25 2018

NOTE: "FAIR" INDICATES FEW OR NO CLOUDS BELOW 12,000 FEET WITH NO
       SIGNIFICANT WEATHER AND/OR OBSTRUCTIONS TO VISIBILITY.
       CURRENT SKY AND/OR WEATHER CONDITIONS ARE NOT AVAILABLE FOR
       CHILLICOTHE AND FARMINGTON.

MOZ001>031-035>038-043-044-053-054-251600-
...NORTHERN AND WESTERN MISSOURI...

CITY           SKY/WX    TMP DP  RH WIND       PRES   REMARKS
KANSAS CTY INT LGT RAIN  49  47  93 N12       30.17R FOG
KANSAS C DTWN  LGT RAIN  52  45  77 N7        30.16R
LEE`S SUMMIT   CLOUDY    51  47  86 N10       30.15F
ST JOSEPH      LGT RAIN  48  48 100 N12       30.20R
CHILLICOTHE      N/A     52  42  69 N8        30.17R
KIRKSVILLE     CLOUDY    52  41  66 N10       30.14S

$$
MOZ066>068-077>081-088>096-101>105-251600-
...SOUTHWEST MISSOURI...

CITY           SKY/WX    TMP DP  RH WIND       PRES   REMARKS
SPRINGFIELD    LGT RAIN  54  48  80 W6        30.14R
JOPLIN         LGT RAIN  53  51  93 NE7       30.15F FOG
BRANSON        LGT RAIN  54  48  82 NW13G21   30.13R

$$
MOZ032>034-039>042-045>050-055>058-069>072-251600-
...CENTRAL MISSOURI...

CITY           SKY/WX    TMP DP  RH WIND       PRES   REMARKS
COLUMBIA       CLOUDY    57  40  52 N10       30.09F
JEFFERSON CITY CLOUDY    58  41  53 N7        30.09F
ROLLA          CLOUDY    58  44  60 N7        30.08F
SEDALIA        CLOUDY    57  45  64 NW9       30.14R
WHITEMAN AFB   DRIZZLE   53  45  74 NW12      30.10S
WARRENSBURG    DRIZZLE   52  45  76 NW7       30.15S
OSAGE BEACH    CLOUDY    57  44  62 VRB6      30.11S

$$
MOZ051-052-059>065-251600-
...EAST CENTRAL MISSOURI...

CITY           SKY/WX    TMP DP  RH WIND       PRES   REMARKS
ST LOUIS INTL  CLOUDY    60  46  59 N9        30.07R
SPIRIT OF STL  CLOUDY    61  46  57 N8        30.06R
ST CHARLES     PTSUNNY   61  48  62 N10       30.07R

$$
MOZ072>076-082>087-097>100-106>115-251600-
...SOUTH CENTRAL AND SOUTHEAST MISSOURI...

CITY           SKY/WX    TMP DP  RH WIND       PRES   REMARKS
CAPE GIRARDEAU FAIR      63  53  70 E3        30.02S
FARMINGTON     CLOUDY    61  45  55 NW6       30.06R
POPLAR BLUFF   FAIR      66  52  60 CALM      30.02F
WEST PLAINS    CLOUDY    59  45  59 N6        30.07F

$$




USA.gov is the U.S. government's official web portal to all federal, state and local government web resources and services.